This demonstration page uses our WeatherBlox Daily Observations layout. Learn more.

Left ArrowRight Arrow

36.17497, -115.13722

Hourly Observations for January 3, 2017

Temp ( °F °C ) Dew Point ( °F °C ) Humidity (%) Winds ( mph kmh ) Pressure ( in mb ) Visibility ( mi km ) Precip ( " mm )
12:53 am 00:53 Clear 48 8.9 32 undefined 54 54 S 13 20 30.06 1018 10 16 N/A
1:53 am 01:53 Clear 48 8.9 32 undefined 54 54 S 10 17 30.09 1019 10 16 N/A
2:53 am 02:53 Clear 47 8.3 34 1.1 61 61 SE 9 15 30.09 1019 10 16 N/A
3:53 am 03:53 Clear 46 7.8 34 1.1 63 63 E 10 17 30.08 1019 10 16 N/A
4:53 am 04:53 Clear 46 7.8 35 1.7 66 66 ENE 6 9 30.10 1019 10 16 N/A
5:53 am 05:53 Clear 45 7.2 39 3.9 80 80 E 12 19 30.11 1020 10 16 N/A
6:53 am 06:53 Sunny 45 7.2 40 4.4 83 83 ENE 9 15 30.12 1020 10 16 N/A
7:53 am 07:53 Sunny 45 7.2 41 5 86 86 ENE 8 13 30.14 1021 10 16 N/A
8:53 am 08:53 Sunny 47 8.3 40 4.4 77 77 E 9 15 30.17 1022 10 16 N/A
9:53 am 09:53 Sunny 49 9.4 38 3.3 66 66 E 10 17 30.18 1022 10 16 N/A
10:53 am 10:53 Sunny 50 10 40 4.4 68 68 E 12 19 30.16 1022 10 16 N/A
11:53 am 11:53 Sunny 50 10 41 5 71 71 ENE 12 19 30.15 1021 10 16 N/A
12:53 pm 12:53 Mostly Sunny 52 11.1 41 5 66 66 ENE 8 13 30.12 1020 10 16 N/A
1:53 pm 13:53 Sunny 53 11.7 42 5.6 66 66 E 10 17 30.10 1019 10 16 N/A
2:53 pm 14:53 Sunny 54 12.2 38 3.3 55 55 ESE 13 20 30.09 1019 10 16 N/A
3:53 pm 15:53 Sunny 53 11.7 40 4.4 61 61 SE 12 19 30.09 1019 10 16 N/A
4:53 pm 16:53 Clear 51 10.6 40 4.4 66 66 ESE 13 20 30.09 1019 10 16 N/A
5:53 pm 17:53 Clear 50 10 40 4.4 68 68 ESE 9 15 30.10 1019 10 16 N/A
6:53 pm 18:53 Clear 49 9.4 40 4.4 71 71 E 7 11 30.11 1020 10 16 N/A
7:53 pm 19:53 Clear 48 8.9 39 3.9 71 71 E 6 9 30.12 1020 10 16 N/A
8:53 pm 20:53 Clear 46 7.8 40 4.4 79 79 ENE 7 11 30.13 1020 10 16 N/A
9:53 pm 21:53 Clear 46 7.8 40 4.4 79 79 E 6 9 30.13 1020 10 16 N/A
10:53 pm 22:53 Clear 44 6.7 39 3.9 83 83 N 6 9 30.14 1021 10 16 N/A
11:53 pm 23:53 Clear 45 7.2 40 4.4 83 83 N N/A 30.12 1020 10 16 N/A

Powered by AerisWeather